Location: Mentone
(34.5413°N, 85.5351°W)
Time: 08:59:41
(UTC-05:00)

Okean O Rocket - Visible Passes

Search period start: 20 September 2014 00:00
Search period end: 30 September 2014 00:00
Orbit: 624 x 648 km, 98.0° (Epoch: 18 September)

Date Brightness Start Highest point End Pass type
(mag) Time Alt. Az. Time Alt. Az. Time Alt. Az.
20 Sep 3.7 04:16:48 10° N 04:18:04 18° NNW 04:18:04 18° NNW visible
21 Sep 3.8 04:39:38 10° NNW 04:40:30 14° NNW 04:40:30 14° NNW visible
22 Sep 4.5 03:24:54 10° NNE 03:25:27 13° NNE 03:25:27 13° NNE visible
23 Sep 4.1 03:47:03 10° NNE 03:47:54 16° NNE 03:47:54 16° NNE visible
24 Sep 3.9 04:09:27 10° N 04:10:20 16° N 04:10:20 16° N visible
25 Sep 3.9 04:32:09 10° NNW 04:32:46 13° NNW 04:32:46 13° NNW visible
27 Sep 4.4 03:39:48 10° NNE 03:40:08 12° NNE 03:40:08 12° NNE visible
28 Sep 4.2 04:02:07 10° N 04:02:34 13° N 04:02:34 13° N visible
29 Sep 4.1 04:24:43 10° N 04:25:00 12° N 04:25:00 12° N visible
